Notices

What's New in latest Release from April 7th, 2021:

- Updated Glossary, including Speed of Maximum Gust, and Total Hourly Precipitation

- Updated national and regional climate services offices contacts and prices information

- Addition of station inventory lists for 1981-2010, 1971-2000, and 1961-1990 Normals.

If you haven't already, please take our survey and provide feedback about our website: https://eccc.sondage-survey.ca/f/LanguageSelection.aspx?s=442ca660-fcf1-47c0-95a9-59707d6fd709

Hourly Data Report for September 20, 2019

QUALICUM BEACH AIRPORT
BRITISH COLUMBIA
Current Station Operator: ECCC - MSC

49°20'14.000" N
124°23'38.000" W
58.20 m
1026562
71766
VOQ

Download Data

Hourly Data (September 2019)
Hourly Data Report for September 20, 2019
TIME
LST
Temp Definition
°C
Dew Point Definition
°C
Rel Hum Definition
%
Precip. Amount Definition
mm

Wind Dir Definition
10's deg

Wind Spd Definition
km/h
Visibility Definition
km
Stn Press Definition
kPa
Hmdx Definition


Wind Chill Definition


Weather Definition


00:00 13.0 12.2 95 0.0 32 3   101.05     LegendNANA
01:00 13.1 12.1 94 0.0 22 2   101.06     LegendNANA
02:00 12.9 12.0 95 0.0 0 1   101.04     LegendNANA
03:00 13.3 12.3 94 0.0   0   101.06     LegendNANA
04:00 13.7 12.4 92 0.0 28 4   101.06     LegendNANA
05:00 13.1 12.1 94 0.0 26 3   101.07     LegendNANA
06:00 13.2 12.1 94 0.0 0 1   101.08     LegendNANA
07:00 13.4 12.5 94 0.0 26 2   101.14     LegendNANA
08:00 14.8 12.0 83 0.0 29 3   101.17     LegendNANA
09:00 15.5 11.8 78 0.0 32 7   101.19     LegendNANA
10:00 16.1 11.5 74 0.0 32 5   101.24     LegendNANA
11:00 17.9 11.3 66 0.0 34 7   101.24     LegendNANA
12:00 17.4 11.9 70 0.0 36 5   101.25     LegendNANA
13:00 17.0 11.4 70 0.0 36 7   101.25     LegendNANA
14:00 18.4 11.2 63 0.0 33 8   101.22     LegendNANA
15:00 18.9 10.6 59 0.0 4 4   101.21     LegendNANA
16:00 18.4 10.2 59 0.0 5 6   101.21     LegendNANA
17:00 18.7 10.5 59 0.0 7 4   101.18     LegendNANA
18:00 16.2 11.5 74 0.0 9 2   101.17     LegendNANA
19:00 13.8 11.4 86 0.0   0   101.23     LegendNANA
20:00 12.9 11.0 88 0.0 28 1   101.24     LegendNANA
21:00 11.9 10.6 92 0.0 25 1   101.26     LegendNANA
22:00 11.3 10.3 93 0.0 22 1   101.27     LegendNANA
23:00 10.9 10.0 94 0.0   0   101.29     LegendNANA

Notes on Data Quality.

Legend

  • E = Estimated
  • M = Missing
  • NA = Not Available*
  • [empty] = Indicates an unobserved value
Date modified: